Flag for U.S.A. Weather past 2 weeks in San Buenaventura, California, U.S.A.

Now
67 °F

Clear.


Feels Like: 67 °F
Forecast: 67 / 77 °F
Wind: No wind

Location: Oxnard Airport

Current Time: Jul 31, 2015 at 12:56:55 AM

Latest Report: Jul 30, 2015 at 11:51 PM


Visibility: 8 mi

Pressure: 30.02 "Hg

Humidity: 87%

Dew point: 63 °F

Location of San BuenaventuraLocation

Historic Weather in San Buenaventura — Graph

°F

San Buenaventura temperature yesterday

Maximum temperature yesterday: 73 °F (at 1:51 PM)
Minimum temperature yesterday: 65 °F (at 4:51 AM)
Average temperature yesterday: 69 °F

Past Weeks' High & Low Weather Summary

 TemperatureHumidityPressure
High81 °F (Jul 19, 1:51 PM)100% (Jul 21, 12:58 AM)30.08 "Hg (Jul 21, 12:58 AM)
Low59 °F (Jul 18, 4:51 AM)50% (Jul 25, 12:51 PM)29.80 "Hg (Jul 17, 5:51 PM)
Average69 °F80%29.94 "Hg
* Reported Jul 16 12:01 AM — Jul 30 11:51 PM, San Buenaventura, Weather by CustomWeather, © 2015

Note: Actual official high and low records may vary slightly from our data, if they occured in-between our weather recording intervals... More about our weather records

Advertising

San Buenaventura weather history for previous 24 hours

 ConditionsComfort  
Time TempWeatherWind HumidityBarometerVisibility
11:51 PM
Thu, Jul 30
67 °FClear.No wind87%30.02 "Hg8 mi
10:51 PM67 °FClear.No wind87%30.01 "Hg8 mi
9:51 PM67 °FClear.5 mph87%30.00 "Hg8 mi
8:51 PM67 °FSunny.6 mph87%29.99 "Hg8 mi
7:51 PM68 °FSunny.10 mph82%29.96 "Hg7 mi
6:51 PM69 °FSunny.12 mph79%29.96 "Hg8 mi
5:51 PM72 °FSunny.14 mph71%29.96 "Hg9 mi
4:51 PM73 °FSunny.15 mph69%29.96 "Hg9 mi
3:51 PM73 °FSunny.13 mph71%29.96 "Hg9 mi
2:51 PM73 °FSunny.14 mph71%29.98 "Hg9 mi
1:51 PM73 °FPassing clouds.14 mph69%30.00 "Hg9 mi
12:51 PM72 °FScattered clouds.14 mph73%30.01 "Hg9 mi
12:04 PM72 °FScattered clouds.12 mph73%30.02 "Hg7 mi
11:51 AM71 °FBroken clouds.9 mph76%30.01 "Hg7 mi
10:51 AM70 °FOvercast.9 mph79%30.02 "Hg7 mi
9:51 AM69 °FMostly cloudy.9 mph81%30.01 "Hg7 mi
8:51 AM68 °FPartly sunny.12 mph82%30.00 "Hg7 mi
7:51 AM67 °FSunny.10 mph87%29.99 "Hg7 mi
7:04 AM65 °FFog.8 mph94%29.99 "Hg6 mi
6:51 AM65 °FFog.7 mph94%29.98 "Hg5 mi
5:51 AM65 °FFog.6 mph91%29.97 "Hg6 mi
4:51 AM65 °FClear.7 mph91%29.96 "Hg7 mi
3:51 AM66 °FClear.5 mph87%29.96 "Hg7 mi
2:51 AM66 °FClear.5 mph87%29.97 "Hg7 mi
1:51 AM66 °FClear.3 mph87%29.97 "Hg8 mi
12:51 AM66 °FPassing clouds.No wind84%29.98 "Hg9 mi
Weather by CustomWeather, © 2015

See weather overviewHow to use our weather pages